This is the latest recevied weather packets stored in our database for station/object W1RCY. If no packets are shown the sender has not sent any weather packets the latest 10 day(s).
| Time | Temp. | Humidity | Pressure | Rain* | Wind** | Luminosity | Snow |
|---|---|---|---|---|---|---|---|
| 1777813581 | 5° C | 95% | 1005.1 hPa | 0 mm | - | 78 W/m² | - |
| 1777813278 | 5.56° C | 96% | 1005.3 hPa | 0 mm | - | 67 W/m² | - |
| 1777812975 | 5° C | 96% | 1005.2 hPa | 0 mm | - | 67 W/m² | - |
| 1777812673 | 5° C | 96% | 1005.3 hPa | 0 mm | - | 74 W/m² | - |
| 1777812369 | 5° C | 97% | 1005.4 hPa | 0 mm | - | 79 W/m² | - |
| 1777812068 | 5° C | 97% | 1005.1 hPa | 0 mm | - | 82 W/m² | - |
| 1777811766 | 5° C | 97% | 1005.2 hPa | 0 mm | - | 67 W/m² | - |
| 1777811461 | 5° C | 97% | 1005.3 hPa | 0 mm | - | 47 W/m² | - |
| 1777811158 | 5° C | 97% | 1005.2 hPa | 0 mm | - | 52 W/m² | - |
| 1777810855 | 5° C | 97% | 1005.3 hPa | 0 mm | - | 40 W/m² | - |
| 1777810552 | 5° C | 97% | 1005.1 hPa | 0 mm | - | 37 W/m² | - |
| 1777810249 | 5° C | 97% | 1005.1 hPa | 0 mm | - | 79 W/m² | - |
| 1777809945 | 5° C | 97% | 1005 hPa | 0 mm | - | 70 W/m² | - |
| 1777809643 | 5° C | 98% | 1005.2 hPa | 0 mm | - | 72 W/m² | - |
| 1777809340 | 5° C | 98% | 1005.4 hPa | 0 mm | - | 44 W/m² | - |
| 1777809038 | 5° C | 98% | 1005.3 hPa | 0 mm | - | 45 W/m² | - |
| 1777808735 | 5° C | 99% | 1005.4 hPa | 0 mm | - | 33 W/m² | - |
| 1777808432 | 5° C | 99% | 1005.4 hPa | 0 mm | - | 36 W/m² | - |
| 1777808130 | 5° C | 99% | 1005.4 hPa | 0 mm | - | 44 W/m² | - |
| 1777807828 | 5° C | 99% | 1005.4 hPa | 0 mm | - | 41 W/m² | - |
| 1777807526 | 5° C | 99% | 1005.3 hPa | 0 mm | - | 59 W/m² | - |
| 1777807221 | 5° C | 99% | 1005.3 hPa | 0 mm | - | 56 W/m² | - |
| 1777806918 | 5° C | 99% | 1005.5 hPa | 0 mm | - | 60 W/m² | - |
| 1777806614 | 4.44° C | 99% | 1005.4 hPa | 0 mm | - | 45 W/m² | - |
| 1777806311 | 4.44° C | 99% | 1005.6 hPa | 0 mm | - | 36 W/m² | - |
* Rain latest hour (hover to see other rain measurements)
** Current wind speed in m/s (hover to see current wind gust speed)